Location: Hartford
(41.7640°N, 72.6860°W)
Time: 05:07:21
(UTC-05:00)

Amateur Radio Satellites - All Passes

Search period start: 23 January 2018 04:37
Search period end: 24 January 2018 04:37
Location: Hartford, 41.7640°N, 72.6860°W

Satellite Date Start Highest point End Downlink Frequencies (MHz)
Time Altitude Azimuth
XW-2D 23 Jan 04:47:09 04:47:46 10° 90° (E) 04:48:23 145.860 - 145.880
XW-2B 23 Jan 05:03:15 05:05:38 16° 93° (E) 05:08:01 145.730 - 145.750
DOVE 4 23 Jan 05:03:17 05:07:37 60° 285° (WNW) 05:12:11 437.250
AO-7 23 Jan 05:09:10 05:16:18 33° 303° (WNW) 05:23:24 .
M-CUBED/EXP-1 PRIME 23 Jan 05:12:24 05:15:43 74° 290° (WNW) 05:18:57 437.505
FALCONSAT 3 23 Jan 05:18:38 05:21:52 29° 185° (S) 05:25:05 435.103
STRAND 1 23 Jan 05:27:04 05:31:04 24° 64° (ENE) 05:35:06 437.568
XW-2C 23 Jan 05:32:51 05:36:22 37° 98° (E) 05:39:51 145.795 - 145.815
LilacSat-2 23 Jan 05:33:46 05:37:24 42° 99° (E) 05:40:58 437.200
SO-50 23 Jan 05:34:44 05:38:48 34° 312° (NW) 05:42:56 436.795
KKS-1 23 Jan 05:49:19 05:51:22 13° 269° (W) 05:53:26 437.445
FO-29 23 Jan 05:52:09 05:57:07 23° 64° (ENE) 06:01:41 435.910
STARS 23 Jan 05:56:09 05:59:47 26° 264° (W) 06:03:27 437.465
KAITUO 1B 23 Jan 06:00:27 06:04:07 58° 101° (E) 06:07:43 145.475/437.950
CUBEBUG 2 23 Jan 06:03:36 06:06:55 18° 92° (E) 06:10:10 437.445
XW-2F 23 Jan 06:06:34 06:10:19 85° 279° (W) 06:14:01 145.980 - 146.000
NUDT-PHONESAT 23 Jan 06:06:46 06:10:26 67° 101° (E) 06:14:03 437.300
CUTE-I 23 Jan 06:11:06 06:16:26 72° 103° (ESE) 06:21:45 437.470
XW-2D 23 Jan 06:18:34 06:22:13 51° 286° (WNW) 06:25:51 145.860 - 145.880
HO-68 23 Jan 06:24:50 06:31:42 47° 100° (E) 06:38:31 435.675
XW-2B 23 Jan 06:36:30 06:39:54 33° 289° (WNW) 06:43:16 145.730 - 145.750
RS-15 23 Jan 06:36:32 06:47:46 44° 108° (ESE) 06:58:53 29.354- 29.394
SEEDS 23 Jan 06:43:15 06:47:11 40° 98° (E) 06:51:06 437.485
FALCONSAT 3 23 Jan 06:57:59 07:00:22 16° 200° (SSW) 07:02:45 435.103
CUTE 1.7 + AOD 2 23 Jan 07:00:42 07:04:55 73° 284° (WNW) 07:09:05 437.475
STRAND 1 23 Jan 07:05:09 07:09:58 43° 261° (W) 07:14:50 437.568
XW-2C 23 Jan 07:08:01 07:10:12 15° 294° (WNW) 07:12:23 145.795 - 145.815
LilacSat-2 23 Jan 07:09:20 07:11:16 14° 295° (WNW) 07:13:12 437.200
XW-2A 23 Jan 07:21:18 07:24:22 33° 98° (E) 07:27:24 145.665 - 145.685
YUBILEINY 23 Jan 07:23:42 07:25:18 11° 53° (NE) 07:26:53 435.215
FO-29 23 Jan 07:35:11 07:41:52 60° 259° (W) 07:47:48 435.910
UWE-3 23 Jan 07:38:58 07:43:39 82° 284° (WNW) 07:48:14 435.000/436.395/437.385
CUBEBUG 2 23 Jan 07:39:09 07:43:44 47° 288° (WNW) 07:48:15 437.445
TIGRISAT 23 Jan 07:40:56 07:43:53 17° 64° (ENE) 07:46:52 435.000
AAUSAT CUBESAT 2 23 Jan 07:52:14 07:56:21 77° 283° (WNW) 08:00:25 437.432
CUTE-I 23 Jan 07:52:41 07:55:51 16° 300° (WNW) 07:59:03 437.470
UNISAT 6 23 Jan 07:56:00 07:59:43 27° 67° (ENE) 08:03:32 437.425
ZACube-1 23 Jan 07:56:50 08:01:24 81° 101° (ESE) 08:05:52 437.345
O/OREOS (USA 219) 23 Jan 07:57:42 07:58:48 11° 49° (NE) 07:59:54 437.305
AO-73 23 Jan 08:01:57 08:06:31 81° 102° (ESE) 08:10:57 145.935
HO-68 23 Jan 08:12:53 08:19:13 35° 297° (WNW) 08:25:33 435.675
SEEDS 23 Jan 08:19:48 08:22:33 17° 294° (WNW) 08:25:18 437.485
BEESAT 3 23 Jan 08:22:40 08:26:25 42° 117° (ESE) 08:30:12 437.485
PCSat 23 Jan 08:30:15 08:35:15 40° 112° (ESE) 08:40:18 145.827
Oscar 11 23 Jan 08:32:21 08:36:41 76° 284° (WNW) 08:40:58 .
RS-15 23 Jan 08:47:41 08:59:52 62° 310° (NW) 09:11:53 29.354- 29.394
XW-2A 23 Jan 08:55:06 08:56:44 13° 294° (WNW) 08:58:21 145.665 - 145.685
PRISM 23 Jan 08:55:30 08:58:44 23° 68° (ENE) 09:01:59 437.425
TIGRISAT 23 Jan 09:15:50 09:20:08 48° 261° (W) 09:24:34 435.000
YUBILEINY 23 Jan 09:15:51 09:24:25 56° 77° (ENE) 09:32:53 435.215
BEESAT 2 23 Jan 09:17:05 09:20:52 42° 117° (ESE) 09:24:42 435.950
UNISAT 6 23 Jan 09:32:24 09:36:18 30° 264° (W) 09:40:19 437.425
O/OREOS (USA 219) 23 Jan 09:34:25 09:38:54 88° 63° (ENE) 09:43:23 437.305
ZACube-1 23 Jan 09:35:38 09:36:57 11° 299° (WNW) 09:38:16 437.345
DELFI C3 23 Jan 09:38:53 09:42:48 70° 284° (WNW) 09:46:43 145.870
AO-73 23 Jan 09:40:44 09:42:02 11° 299° (WNW) 09:43:18 145.935
AIST 2D 23 Jan 09:43:54 09:47:03 32° 72° (ENE) 09:50:13 435.315
Max Valier Satellite 23 Jan 09:44:49 09:48:32 89° 283° (WNW) 09:52:12 145.860
QB50P2 23 Jan 09:53:13 09:56:01 17° 65° (ENE) 09:58:49 145.880/145.840
EO-88 23 Jan 09:57:07 10:00:46 83° 102° (ESE) 10:04:23 145.990 - 145.960
BEESAT 3 23 Jan 10:01:05 10:04:06 20° 315° (NW) 10:07:09 437.485
PCSat 23 Jan 10:13:56 10:18:43 32° 310° (NW) 10:23:33 145.827
DUCHIFAT 1 23 Jan 10:17:55 10:21:06 21° 66° (ENE) 10:24:19 145.980
EO-79 23 Jan 10:22:01 10:25:44 30° 69° (ENE) 10:29:29 145.935-145.965
PRISM 23 Jan 10:30:23 10:33:52 27° 264° (W) 10:37:22 437.425
AO-85 23 Jan 10:39:47 10:43:27 38° 116° (ESE) 10:47:21 145.980
BEESAT 2 23 Jan 10:55:39 10:58:45 21° 315° (NW) 11:01:53 435.950
POLYITAN 1 23 Jan 10:57:09 11:01:23 76° 74° (ENE) 11:05:40 437.675
RS-15 23 Jan 11:05:37 11:15:31 27° 340° (NNW) 11:25:10 29.354- 29.394
LO-87 23 Jan 11:07:37 11:11:16 73° 102° (ESE) 11:14:52 145.935 - 145.965
BUGSAT 1 23 Jan 11:08:58 11:11:42 17° 65° (ENE) 11:14:27 437.445
NANOSAT C BR1 23 Jan 11:10:08 11:14:21 88° 258° (WSW) 11:18:37 145.865
Oscar 19 23 Jan 11:10:29 11:13:31 16° 60° (ENE) 11:16:35 437.125/150
ESTCUBE 1 23 Jan 11:10:51 11:15:17 56° 100° (E) 11:19:40 437.505/2401.250
YUBILEINY 23 Jan 11:13:22 11:20:43 32° 277° (W) 11:28:02 435.215
AIST 2D 23 Jan 11:18:18 11:20:18 14° 268° (W) 11:22:18 435.315
Gurwin Techsat 1B 23 Jan 11:18:34 11:21:23 15° 59° (ENE) 11:24:13 435.225
QB50P2 23 Jan 11:27:25 11:31:26 43° 261° (W) 11:35:31 145.880/145.840
DUCHIFAT 1 23 Jan 11:52:44 11:56:33 33° 263° (W) 12:00:24 145.980
EO-79 23 Jan 11:58:08 12:01:29 23° 266° (W) 12:04:53 145.935-145.965
SPROUT 23 Jan 12:09:47 12:14:03 58° 101° (E) 12:18:16 437.525
AO-85 23 Jan 12:20:45 12:24:00 23° 316° (NW) 12:27:27 145.980
SO-50 23 Jan 12:24:51 12:29:03 31° 48° (NE) 12:33:18 436.795
AO-7 23 Jan 12:25:41 12:31:22 21° 50° (NE) 12:37:04 .
VELOX 1 23 Jan 12:34:22 12:38:42 56° 100° (E) 12:43:02 145.980
BUGSAT 1 23 Jan 12:42:52 12:46:43 40° 262° (W) 12:50:38 437.445
DX 1 23 Jan 12:43:27 12:45:26 13° 91° (E) 12:47:25 434.975-435.025
Oscar 19 23 Jan 12:47:03 12:52:14 71° 257° (WSW) 12:57:27 437.125/150
ESTCUBE 1 23 Jan 12:49:02 12:51:36 15° 297° (WNW) 12:54:10 437.505/2401.250
AO-91 23 Jan 12:50:06 12:53:22 49° 260° (W) 12:56:49 145.960
Gurwin Techsat 1B 23 Jan 12:55:19 13:00:38 80° 256° (WSW) 13:05:59 435.225
50 SAT 23 Jan 13:09:33 13:11:43 17° 95° (E) 13:13:53 437.505
RS-15 23 Jan 13:24:00 13:33:28 26° 16° (NNE) 13:42:36 29.354- 29.394
SPROUT 23 Jan 13:47:14 13:49:26 14° 297° (WNW) 13:51:37 437.525
UKube-1 23 Jan 13:59:36 14:03:50 53° 100° (E) 14:08:02 .
ITAMSAT 1 23 Jan 14:00:13 14:04:42 31° 66° (ENE) 14:09:13 435.822/435.867
SO-50 23 Jan 14:05:15 14:09:31 35° 245° (WSW) 14:13:50 436.795
VELOX 1 23 Jan 14:12:13 14:14:41 15° 297° (WNW) 14:17:08 145.980
AO-7 23 Jan 14:14:35 14:22:56 83° 71° (ENE) 14:31:22 .
DX 1 23 Jan 14:17:41 14:21:57 57° 287° (WNW) 14:26:13 434.975-435.025
M-CUBED/EXP-1 PRIME 23 Jan 14:25:22 14:27:26 14° 60° (ENE) 14:29:25 437.505
DOVE 4 23 Jan 14:34:12 14:36:04 13° 64° (ENE) 14:37:56 437.250
50 SAT 23 Jan 14:40:58 14:43:20 20° 290° (WNW) 14:45:41 437.505
ITUPSAT 1 23 Jan 14:49:56 14:54:10 30° 96° (E) 14:58:22 437.325
MOZHAYETS 4 23 Jan 14:53:00 14:57:36 60° 101° (E) 15:02:08
NO-84 23 Jan 15:02:32 15:05:04 21° 131° (SE) 15:07:29 435.350 FM
CUBESAT XI-V 23 Jan 15:04:36 15:07:59 20° 93° (E) 15:11:21 437.345
BEESAT 23 Jan 15:27:12 15:32:01 73° 103° (ESE) 15:36:47 436.000
UKube-1 23 Jan 15:36:56 15:39:23 15° 297° (WNW) 15:41:51 .
RS-15 23 Jan 15:37:42 15:49:19 57° 47° (NE) 16:00:16 29.354- 29.394
ITAMSAT 1 23 Jan 15:39:28 15:44:05 33° 263° (W) 15:48:44 435.822/435.867
CUTE-I 23 Jan 15:55:50 15:59:05 17° 60° (ENE) 16:02:20 437.470
M-CUBED/EXP-1 PRIME 23 Jan 15:57:10 16:01:25 60° 253° (WSW) 16:05:23 437.505
KKS-1 23 Jan 16:03:23 16:04:19 11° 90° (E) 16:05:15 437.445
DOVE 4 23 Jan 16:09:08 16:13:19 56° 260° (W) 16:17:24 437.250
AO-7 23 Jan 16:10:42 16:16:35 21° 268° (W) 16:22:30 .
XW-2C 23 Jan 16:14:33 16:17:24 20° 68° (ENE) 16:20:15 145.795 - 145.815
LilacSat-2 23 Jan 16:16:00 16:19:03 23° 69° (ENE) 16:22:07 437.200
ITUPSAT 1 23 Jan 16:27:44 16:31:55 30° 293° (WNW) 16:36:05 437.325
MOZHAYETS 4 23 Jan 16:31:37 16:34:14 15° 297° (WNW) 16:36:50
BEESAT 3 23 Jan 16:38:57 16:42:21 27° 48° (NE) 16:45:42 437.485
NO-84 23 Jan 16:39:16 16:42:06 32° 325° (NW) 16:44:49 435.350 FM
KAITUO 1B 23 Jan 16:40:23 16:43:36 27° 70° (ENE) 16:46:49 145.475/437.950
CUBESAT XI-V 23 Jan 16:41:11 16:45:30 40° 289° (WNW) 16:49:47 437.345
NUDT-PHONESAT 23 Jan 16:45:40 16:48:56 29° 71° (ENE) 16:52:12 437.300
XW-2F 23 Jan 16:46:59 16:50:37 44° 73° (ENE) 16:54:15 145.980 - 146.000
HO-68 23 Jan 16:53:56 17:00:17 36° 63° (ENE) 17:06:39 435.675
XW-2D 23 Jan 16:59:10 17:02:59 72° 75° (ENE) 17:06:47 145.860 - 145.880
CUBEBUG 2 23 Jan 17:02:27 17:05:05 16° 63° (ENE) 17:07:46 437.445
BEESAT 23 Jan 17:06:48 17:09:10 14° 300° (WNW) 17:11:31 436.000
XW-2B 23 Jan 17:16:55 17:20:43 71° 259° (WSW) 17:24:32 145.730 - 145.750
PCSat 23 Jan 17:17:34 17:22:34 36° 51° (NE) 17:27:32 145.827
CUTE-I 23 Jan 17:33:15 17:38:32 70° 258° (WSW) 17:43:51 437.470
BEESAT 2 23 Jan 17:34:17 17:37:48 28° 48° (NE) 17:41:17 435.950
SEEDS 23 Jan 17:34:59 17:38:37 29° 70° (ENE) 17:42:15 437.485
KKS-1 23 Jan 17:36:52 17:41:20 72° 286° (WNW) 17:45:46 437.445
STARS 23 Jan 17:44:03 17:48:22 52° 100° (E) 17:52:42 437.465
XW-2C 23 Jan 17:48:03 17:51:24 28° 264° (W) 17:54:44 145.795 - 145.815
LilacSat-2 23 Jan 17:49:58 17:53:12 25° 265° (W) 17:56:26 437.200
RS-15 23 Jan 17:50:45 18:01:26 46° 251° (WSW) 18:11:39 29.354- 29.394
CUTE 1.7 + AOD 2 23 Jan 17:52:54 17:57:10 79° 76° (ENE) 18:01:26 437.475
XW-2A 23 Jan 17:53:37 17:55:14 13° 66° (ENE) 17:56:49 145.665 - 145.685
nSIGHT-1 23 Jan 18:04:45 18:06:28 14° 131° (SE) 18:08:11 .
KAITUO 1B 23 Jan 18:14:46 18:17:33 20° 266° (W) 18:20:20 145.475/437.950
BEESAT 3 23 Jan 18:16:30 18:19:47 26° 246° (WSW) 18:23:03 437.485
NUDT-PHONESAT 23 Jan 18:20:10 18:22:47 18° 266° (W) 18:25:23 437.300
XW-2F 23 Jan 18:23:12 18:24:55 13° 269° (W) 18:26:38 145.980 - 146.000
ISS 23 Jan 18:30:05 18:32:18 17° 132° (SE) 18:34:31 437.550
UWE-3 23 Jan 18:35:27 18:39:54 80° 77° (ENE) 18:44:30 435.000/436.395/437.385
CUBEBUG 2 23 Jan 18:36:51 18:41:10 55° 260° (W) 18:45:41 437.445
HO-68 23 Jan 18:41:03 18:47:50 46° 261° (W) 18:54:40 435.675
AAUSAT CUBESAT 2 23 Jan 18:41:53 18:45:58 68° 75° (ENE) 18:50:04 437.432
FO-29 23 Jan 18:45:52 18:48:30 14° 90° (E) 18:51:10 435.910
ZACube-1 23 Jan 18:52:05 18:56:30 63° 74° (ENE) 19:01:02 437.345
AO-73 23 Jan 18:56:52 19:01:18 62° 74° (ENE) 19:05:48 145.935
PCSat 23 Jan 19:01:03 19:05:54 34° 250° (WSW) 19:10:44 145.827
AO-85 23 Jan 19:09:27 19:14:10 44° 51° (NE) 19:19:10 145.980
SEEDS 23 Jan 19:10:52 19:14:16 24° 266° (W) 19:17:40 437.485
BEESAT 2 23 Jan 19:12:03 19:15:27 27° 246° (WSW) 19:18:47 435.950
STRAND 1 23 Jan 19:14:52 19:20:00 63° 102° (ESE) 19:25:05 437.568
STARS 23 Jan 19:21:36 19:24:16 16° 297° (WNW) 19:26:57 437.465
XW-2A 23 Jan 19:24:23 19:27:33 36° 262° (W) 19:30:45 145.665 - 145.685
Oscar 11 23 Jan 19:26:45 19:31:06 82° 77° (ENE) 19:35:29 .
nSIGHT-1 23 Jan 19:39:08 19:42:16 65° 327° (NNW) 19:45:25 .
ISS 23 Jan 20:05:17 20:08:29 56° 328° (NNW) 20:11:42 437.550
Max Valier Satellite 23 Jan 20:23:20 20:26:49 38° 73° (ENE) 20:30:19 145.860
DELFI C3 23 Jan 20:23:41 20:27:32 63° 75° (ENE) 20:31:24 145.870
YUBILEINY 23 Jan 20:28:22 20:30:17 11° 72° (ENE) 20:32:11 435.215
FO-29 23 Jan 20:28:59 20:34:08 66° 287° (WNW) 20:39:24 435.910
ZACube-1 23 Jan 20:31:15 20:33:12 13° 271° (W) 20:35:10 437.345
EO-88 23 Jan 20:34:33 20:37:53 33° 72° (ENE) 20:41:12 145.990 - 145.960
AO-73 23 Jan 20:35:55 20:37:56 13° 271° (W) 20:39:57 145.935
AO-85 23 Jan 20:50:12 20:54:28 28° 247° (WSW) 20:58:53 145.980
STRAND 1 23 Jan 20:55:22 20:58:38 17° 299° (WNW) 21:01:55 437.568
TIGRISAT 23 Jan 21:06:51 21:11:10 35° 97° (E) 21:15:25 435.000
nSIGHT-1 23 Jan 21:16:40 21:18:54 17° 346° (NNW) 21:21:08 .
UNISAT 6 23 Jan 21:22:49 21:27:28 56° 100° (E) 21:32:03 437.425
NO-84 23 Jan 21:34:30 21:36:37 19° 29° (NNE) 21:38:45 435.350 FM
ISS 23 Jan 21:43:12 21:45:29 17° 348° (NNW) 21:47:47 437.550
LO-87 23 Jan 21:43:38 21:46:43 28° 71° (ENE) 21:49:49 145.935 - 145.965
Max Valier Satellite 23 Jan 21:58:48 22:00:47 14° 268° (W) 22:02:46 145.860
EO-88 23 Jan 22:09:26 22:11:36 15° 267° (W) 22:13:47 145.990 - 145.960
ESTCUBE 1 23 Jan 22:10:12 22:14:35 52° 73° (ENE) 22:18:59 437.505/2401.250
PRISM 23 Jan 22:10:31 22:14:17 35° 98° (E) 22:18:02 437.425
YUBILEINY 23 Jan 22:16:31 22:25:11 64° 92° (E) 22:33:50 435.215
AIST 2D 23 Jan 22:40:57 22:44:12 36° 98° (E) 22:47:25 435.315
POLYITAN 1 23 Jan 22:43:32 22:45:15 12° 90° (E) 22:46:58 437.675
TIGRISAT 23 Jan 22:43:49 22:47:39 25° 293° (WNW) 22:51:27 435.000
nSIGHT-1 23 Jan 22:54:07 22:55:59 15° 6° (N) 22:57:52 .
NANOSAT C BR1 23 Jan 22:55:21 22:57:45 15° 91° (E) 23:00:08 145.865
UNISAT 6 23 Jan 23:00:45 23:03:41 17° 297° (WNW) 23:06:37 437.425
SPROUT 23 Jan 23:02:54 23:06:55 43° 72° (ENE) 23:10:59 437.525
NO-84 23 Jan 23:11:10 23:13:52 39° 226° (SW) 23:16:39 435.350 FM
QB50P2 23 Jan 23:11:52 23:15:37 28° 96° (E) 23:19:19 145.880/145.840
LO-87 23 Jan 23:17:43 23:20:08 17° 267° (W) 23:22:33 145.935 - 145.965
ISS 23 Jan 23:20:49 23:22:55 16° 8° (N) 23:25:01 437.550
VELOX 1 23 Jan 23:31:28 23:35:42 50° 72° (ENE) 23:39:56 145.980
DUCHIFAT 1 23 Jan 23:35:52 23:39:47 35° 97° (E) 23:43:41 145.980
DX 1 23 Jan 23:39:43 23:41:37 13° 61° (ENE) 23:43:31 434.975-435.025
EO-79 23 Jan 23:41:12 23:45:25 54° 100° (E) 23:49:36 145.935-145.965
PRISM 23 Jan 23:46:23 23:49:17 19° 294° (WNW) 23:52:12 437.425
O/OREOS (USA 219) 23 Jan 23:46:42 23:51:13 82° 293° (WNW) 23:55:43 437.305
ESTCUBE 1 23 Jan 23:49:03 23:51:41 15° 269° (W) 23:54:18 437.505/2401.250
YUBILEINY 24 Jan 00:15:14 00:22:36 29° 293° (WNW) 00:30:00 435.215
AIST 2D 24 Jan 00:15:21 00:17:00 13° 294° (WNW) 00:18:39 435.315
POLYITAN 1 24 Jan 00:17:09 00:21:23 59° 286° (WNW) 00:25:35 437.675
BUGSAT 1 24 Jan 00:24:08 00:27:46 27° 96° (E) 00:31:23 437.445
NANOSAT C BR1 24 Jan 00:29:35 00:33:42 48° 288° (WNW) 00:37:48 145.865
nSIGHT-1 24 Jan 00:29:55 00:32:51 33° 26° (NNE) 00:35:47 .
AO-91 24 Jan 00:37:51 00:41:59 30° 97° (E) 00:46:25 145.960
SPROUT 24 Jan 00:40:22 00:43:00 16° 268° (W) 00:45:41 437.525
QB50P2 24 Jan 00:47:44 00:51:16 25° 292° (WNW) 00:54:47 145.880/145.840
UKube-1 24 Jan 00:53:55 00:58:01 46° 72° (ENE) 01:02:08 .
ISS 24 Jan 00:56:57 01:00:03 39° 28° (NNE) 01:03:10 437.550
Oscar 19 24 Jan 00:58:31 01:03:20 39° 98° (E) 01:08:07 437.125/150
BEESAT 24 Jan 01:00:23 01:01:18 10° 58° (ENE) 01:02:13 436.000
50 SAT 24 Jan 01:04:16 01:07:21 81° 260° (W) 01:10:27 437.505
VELOX 1 24 Jan 01:09:55 01:12:24 15° 268° (W) 01:14:54 145.980
Gurwin Techsat 1B 24 Jan 01:11:25 01:16:24 39° 98° (E) 01:21:21 435.225
DUCHIFAT 1 24 Jan 01:12:01 01:15:12 21° 294° (WNW) 01:18:23 145.980
DX 1 24 Jan 01:12:58 01:17:14 65° 258° (WSW) 01:21:33 434.975-435.025
EO-79 24 Jan 01:18:22 01:20:42 14° 297° (WNW) 01:23:01 145.935-145.965
FALCONSAT 3 24 Jan 01:30:00 01:30:34 10° 154° (SSE) 01:31:07 435.103
O/OREOS (USA 219) 24 Jan 01:30:52 01:31:22 10° 311° (NW) 01:31:52 437.305
MOZHAYETS 4 24 Jan 01:54:39 01:59:12 59° 73° (ENE) 02:03:47
ITUPSAT 1 24 Jan 01:56:42 02:01:04 36° 69° (ENE) 02:05:27 437.325
BUGSAT 1 24 Jan 01:59:28 02:03:01 26° 292° (WNW) 02:06:34 437.445
nSIGHT-1 24 Jan 02:06:08 02:08:59 31° 223° (SW) 02:11:50 .
CUBESAT XI-V 24 Jan 02:08:05 02:11:37 22° 66° (ENE) 02:15:09 437.345
AO-91 24 Jan 02:14:18 02:18:20 31° 290° (WNW) 02:22:41 145.960
AO-7 24 Jan 02:16:50 02:23:36 27° 94° (E) 02:30:18 .
UKube-1 24 Jan 02:31:39 02:34:15 16° 267° (W) 02:36:53 .
BEESAT 24 Jan 02:33:30 02:38:16 86° 78° (ENE) 02:43:04 436.000
ISS 24 Jan 02:33:37 02:36:25 26° 225° (SW) 02:39:12 437.550
Oscar 19 24 Jan 02:38:12 02:42:27 26° 295° (WNW) 02:46:40 437.125/150
Gurwin Techsat 1B 24 Jan 02:51:43 02:56:09 27° 295° (WNW) 03:00:33 435.225
KKS-1 24 Jan 03:01:49 03:03:14 11° 60° (ENE) 03:04:39 437.445
FALCONSAT 3 24 Jan 03:05:54 03:08:56 24° 169° (SSE) 03:11:59 435.103
MOZHAYETS 4 24 Jan 03:34:17 03:36:43 14° 270° (W) 03:39:11
ITUPSAT 1 24 Jan 03:35:04 03:38:57 24° 265° (W) 03:42:51 437.325
CUBESAT XI-V 24 Jan 03:44:17 03:48:42 41° 262° (W) 03:53:08 437.345
ITAMSAT 1 24 Jan 03:51:09 03:56:23 84° 103° (ESE) 04:01:36 435.822/435.867
DOVE 4 24 Jan 04:06:42 04:10:47 34° 98° (E) 04:15:02 437.250
AO-7 24 Jan 04:08:39 04:16:57 69° 293° (WNW) 04:25:12 .
SO-50 24 Jan 04:19:03 04:23:28 72° 120° (ESE) 04:27:59 436.795
